Regional Weather Roundup
Issued by NWS Sioux Falls, SD

Home | Current Version | Previous Version | Text Only | Print | Product List | Glossary On
Versions: 1 2 3 4 5 6 7 8 9 10 11 12 13 14 15 16 17 18 19 20 21 22 23 24 25 26 27 28 29 30 31 32 33 34 35 36 37 38 39 40 41 42 43 44 45 46 47 48 49 50
000
ASUS43 KFSD 252102
RWRFSD

WEATHER ROUNDUP FOR SE SOUTH DAKOTA/SW MINNESOTA/NW IOWA
NATIONAL WEATHER SERVICE SIOUX FALLS SD
400 PM CDT THU MAY 25 2017

NOTE: "FAIR" INDICATES FEW OR NO CLOUDS BELOW 12,000 FEET WITH NO
SIGNIFICANT WEATHER AND OR OBSTRUCTIONS TO VISIBILITY.


SDZ038>040-050-052>070-252200-
SOUTHEAST SOUTH DAKOTA

CITY           SKY/WX    TMP DP  RH WIND       PRES   REMARKS
BROOKINGS      CLOUDY    68  50  52 S18       29.54S
CHAMBERLAIN    NOT AVBL
HURON          LGT RAIN  61  56  83 SW9       29.49R
MADISON        FAIR      64  48  55 SW16G28   29.54R
MITCHELL       LGT RAIN  63  56  78 SW7       29.52R
SIOUX FALLS    CLOUDY    69  53  56 S13       29.53S
WINNER         FAIR      72  51  47 N8        29.53R
YANKTON        CLOUDY    70  49  47 S12       29.54R
$$

MNZ071-072-080-081-089-090-097-098-252200-
SOUTHWEST MINNESOTA

CITY           SKY/WX    TMP DP  RH WIND       PRES   REMARKS
FAIRMONT       CLOUDY    70  49  47 S21       29.60F
JACKSON        MOSUNNY   68  48  49 SE15      29.59F
LUVERNE        CLOUDY    68  45  42 S17       29.56R
MARSHALL       PTSUNNY   71  50  47 S18       29.55S
MONTEVIDEO     CLOUDY    70  50  49 S14G20    29.56S
PIPESTONE      LGT RAIN  66  48  52 SW13      29.56R
REDWOOD FALLS  MOSUNNY   70  49  47 S18       29.57F
TRACY          CLOUDY    71  52  52 S16       29.56F
WINDOM         PTSUNNY   70  48  46 SE22      29.58F
WORTHINGTON    CLOUDY    70  49  47 S16G23    29.57S
$$

IAZ001>003-012>014-020>022-031-032-NEZ013-014-SDZ071-252200-
NORTHWEST IOWA

CITY           SKY/WX    TMP DP  RH WIND       PRES   REMARKS
CHEROKEE       CLOUDY    70  50  49 S15       29.56
DENISON        SUNNY     73  48  40 S15G21    29.59
ESTHERVILLE    CLOUDY    69  51  52 SE17      29.58F
LE MARS        CLOUDY    70  50  49 S17G25    29.52F
ORANGE CITY    CLOUDY    68  50  52 S14G20    29.54
SHELDON        PTSUNNY   70  48  46 S16G24    29.54
SIOUX CITY     CLOUDY    69  52  54 SE17G28   29.49F
SPENCER        CLOUDY    73  49  42 S21G28    29.56F
STORM LAKE     MOSUNNY   73  46  38 S18G29    29.58F
$$

ABBREVIATIONS USED IN REMARKS
   TC - TEMPERATURE IN CELSIUS
  WCI - WIND CHILL INDEX
   HX - HEAT INDEX
  VSB - VISIBILITY




USA.gov is the U.S. government's official web portal to all federal, state and local government web resources and services.